Location: Unspecified
(0.0000°N, 0.0000°E)
Time: 16:26:26
(UTC+00:00)

Midas 6 - Visible Passes

Search period start: 21 July 2024 00:00
Search period end: 31 July 2024 00:00
Orbit: 3611 x 3677 km, 87.3° (Epoch: 21 July)

Date Brightness Start Highest point End Pass type
(mag) Time Alt. Az. Time Alt. Az. Time Alt. Az.
21 Jul 8.1 00:06:07 11° WSW 00:08:50 12° W 00:14:21 10° WNW visible
21 Jul 7.2 19:30:08 23° ESE 19:36:40 28° E 19:51:02 10° NE visible
21 Jul 7.0 22:03:39 10° SSW 22:21:45 55° W 22:39:55 10° NNW visible
22 Jul 6.7 20:15:53 10° SSE 20:34:25 58° E 20:52:32 10° NNE visible
22 Jul 7.7 23:05:35 10° SW 23:19:25 26° W 23:33:29 10° NW visible
23 Jul 7.6 18:39:23 10° ESE 18:47:11 14° E 18:54:49 10° ENE visible
23 Jul 6.6 21:13:07 10° S 21:32:11 81° W 21:51:06 10° N visible
24 Jul 7.0 19:28:14 10° SSE 19:44:50 37° E 20:00:57 10° NNE visible
24 Jul 7.3 22:12:48 10° SSW 22:29:55 43° W 22:47:10 10° NNW visible
25 Jul 6.6 20:23:36 10° S 20:42:35 71° E 21:01:14 10° N visible
25 Jul 8.0 23:16:43 10° SW 23:27:32 18° W 23:38:31 10° WNW visible
26 Jul 7.4 18:42:59 10° SE 18:55:18 21° E 19:07:16 10° NE visible
26 Jul 6.8 21:21:40 10° S 21:40:22 67° W 21:59:01 10° NNW visible
27 Jul 6.8 19:35:13 10° SSE 19:53:00 47° E 20:10:19 10° NNE visible
27 Jul 7.5 22:22:22 10° SSW 22:38:04 34° W 22:53:59 10° NW visible
28 Jul 6.6 20:31:39 10° S 20:50:46 86° E 21:09:41 10° N visible
28 Jul 8.2 23:30:49 10° WSW 23:35:37 11° W 23:40:26 10° W visible
29 Jul 7.2 18:48:31 10° SE 19:03:27 28° E 19:17:56 10° NNE visible
29 Jul 7.1 21:30:31 10° SSW 21:48:32 54° W 22:06:38 10° NNW visible
30 Jul 6.7 19:42:39 10° SSE 20:01:11 59° E 20:19:20 10° N visible
30 Jul 7.8 22:32:32 10° SW 22:46:12 25° W 23:00:06 10° NW visible
